Guest (not logged in) | Log in

Project information

Duration: 2018-12-20 00:00 onwards
Historical data from: 1995-01-01
Position: 0° 0' 0.00" N
0° 0' 0.00" E
0 m A.S.L
Contact: Carsten Weber Kock
Description: Zephir 317 måler vind i Roskilde

Measurements

NameHeight [m]DurationLatest (2019-05-21 23:50)
Dir_100m 0.00 2018-12-20 14:20 onwards 136.98 Deg
Dir_10m 0.00 2018-12-20 14:20 onwards 137.58 Deg
Dir_125m 0.00 2018-12-20 14:20 onwards 142.10 Deg
Dir_150m 0.00 2018-12-20 14:20 onwards 136.74 Deg
Dir_200m 0.00 2018-12-20 14:20 onwards 135.71 Deg
Dir_20m 0.00 2018-12-20 14:20 onwards 140.62 Deg
Dir_30m 0.00 2018-12-20 14:20 onwards 138.93 Deg
Dir_38m 0.00 2018-12-20 14:20 onwards 138.22 Deg
Dir_50m 0.00 2018-12-20 14:20 onwards 141.41 Deg
Dir_60m 0.00 2018-12-20 14:20 onwards 141.80 Deg
Dir_800m 0.00 2018-12-20 14:20 onwards 137.88 Deg
Dir_80m 0.00 2018-12-20 14:20 onwards 137.58 Deg
Humidity 0.00 2018-12-20 14:20 onwards -
MetDir 0.00 2018-12-20 14:20 onwards 152.80 Deg
Metwsp 0.00 2018-12-20 14:20 onwards 2.24 m/s
Pressure 0.00 2018-12-20 14:20 onwards 1001.30 mbar
Temp 0.00 2018-12-20 14:20 onwards 10.60 DegC
TI_100m 0.00 2018-12-20 14:20 onwards 0.13 -
TI_10m 0.00 2018-12-20 14:20 onwards 0.16 -
TI_125m 0.00 2018-12-20 14:20 onwards 0.18 -
TI_150m 0.00 2018-12-20 14:20 onwards 0.23 -
TI_200m 0.00 2018-12-20 14:20 onwards 0.22 -
TI_20m 0.00 2018-12-20 14:20 onwards 0.18 -
TI_30m 0.00 2018-12-20 14:20 onwards 0.19 -
TI_38m 0.00 2018-12-20 14:20 onwards 0.12 -
TI_50m 0.00 2018-12-20 14:20 onwards 0.17 -
TI_60m 0.00 2018-12-20 14:20 onwards 0.18 -
TI_800m 0.00 2018-12-20 14:20 onwards 0.17 -
TI_80m 0.00 2018-12-20 14:20 onwards 0.13 -
Vert_100m 0.00 2018-12-20 14:20 onwards 0.19 m/s
Vert_10m 0.00 2018-12-20 14:20 onwards 0.07 m/s
Vert_125m 0.00 2018-12-20 14:20 onwards 0.30 m/s
Vert_150m 0.00 2018-12-20 14:20 onwards 0.24 m/s
Vert_200m 0.00 2018-12-20 14:20 onwards 0.35 m/s
Vert_20m 0.00 2018-12-20 14:20 onwards 0.12 m/s
Vert_30m 0.00 2018-12-20 14:20 onwards 0.23 m/s
Vert_38m 0.00 2018-12-20 14:20 onwards 0.22 m/s
Vert_50m 0.00 2018-12-20 14:20 onwards 0.32 m/s
Vert_60m 0.00 2018-12-20 14:20 onwards 0.24 m/s
Vert_800m 0.00 2018-12-20 14:20 onwards 0.12 m/s
Vert_80m 0.00 2018-12-20 14:20 onwards 0.19 m/s
Wsp_100m 0.00 2018-12-20 14:20 onwards 6.95 m/s
Wsp_10m 0.00 2018-12-20 14:20 onwards 3.96 m/s
Wsp_125m 0.00 2018-12-20 14:20 onwards 6.83 m/s
Wsp_150m 0.00 2018-12-20 14:20 onwards 6.42 m/s
Wsp_200m 0.00 2018-12-20 14:20 onwards 6.11 m/s
Wsp_20m 0.00 2018-12-20 14:20 onwards 4.54 m/s
Wsp_30m 0.00 2018-12-20 14:20 onwards 4.93 m/s
Wsp_38m 0.00 2018-12-20 14:20 onwards 5.20 m/s
Wsp_50m 0.00 2018-12-20 14:20 onwards 6.01 m/s
Wsp_60m 0.00 2018-12-20 14:20 onwards 6.27 m/s
Wsp_800m 0.00 2018-12-20 14:20 onwards 5.73 m/s
Wsp_80m 0.00 2018-12-20 14:20 onwards 6.60 m/s
Comments and help requests to webmaster
© 2019